Zurück zum Katalog

TITAN 3C TRANSTAGE R/B

AktivMEO
NORAD 5589·ROCKET BODY·🇺🇸 United States

Gestartet Nov 3, 1971 von Cape Canaveral Space Force Station

Loading…

Nächste Überflüge (nächste 24 Stunden)

TLE

AktuellSource: Space-Track

Epoche: Sep 14, 2026, 12:28 UTC

1 05589U 71095C   26257.51949671 -.00000196  00000-0  00000-0 0  9990
2 05589   3.0484 272.2764 0165703 189.4310 276.4992  0.97188871120298

Verfolge TITAN 3C TRANSTAGE R/B in Echtzeit mit AllMySat

Download on the App Store